Regional Weather Roundup
Issued by NWS

Home | Current Version | Previous Version | Text Only | Print | Product List | Glossary On
Versions: 1 2 3 4 5 6 7 8 9 10 11 12 13 14 15 16 17 18 19 20 21 22 23 24 25 26 27 28 29 30 31 32 33 34 35 36 37 38 39 40 41 42 43 44 45 46 47 48 49 50
000
ASUS44 KMEG 220210
RWRTN
TENNESSEE HOURLY STATE WEATHER ROUNDUP
NATIONAL WEATHER SERVICE MEMPHIS TN
900 PM CDT MON AUG 21 2017

TNZ002-004-019-021-049-052-054-088>092-220300-
WEST TENNESSEE

CITY           SKY/WX    TMP DP  RH WIND       PRES   REMARKS
MEMPHIS INTL   PTCLDY    84  76  76 S6        30.10R HX  93
NWS MEMPHIS      N/A     83 N/A N/A MISG        N/A
JACKSON        CLEAR     81  78  91 SW5       30.11R
DYERSBURG      CLEAR     83  77  82 S3        30.10R HX  92
SOMERVILLE       N/A     81  79  94 CALM      30.10R
COVINGTON      CLEAR     81  77  89 S5        30.09R
UNION CITY     CLEAR     79  77  94 CALM      30.08R
BOLIVAR        PTCLDY    79  77  94 CALM      30.11R
PARIS          PTCLDY    77  77 100 CALM      30.09R
HUNTINGDON     MOCLDY    81  77  89 SW7       30.10R
LEXINGTON      MOCLDY    81  75  83 CALM      30.11R
SELMER         CLOUDY    84  75  74 E3        30.12R HX  92
SAVANNAH       CLOUDY    81  75  83 CALM      30.11R
$$

TNZ008-025-027-028-033-062-065-066-220300-
NORTH MIDDLE TENNESSEE

CITY           SKY/WX    TMP DP  RH WIND       PRES   REMARKS
NASHVILLE      PTCLDY    83  70  64 CALM      30.13R
PORTLAND       CLOUDY    79  73  83 CALM      30.13R
CLARKSVILLE    CLEAR     78  73  84 S3        30.10R
SMYRNA         CLEAR     77  71  82 CALM      30.13R
COOKEVILLE       N/A     73  70  88 E3        30.15R
GALLATIN       PTCLDY    81  72  74 CALM      30.14R
CROSSVILLE     CLEAR     71  68  90 CALM      30.22R
$$

TNZ061-075-076-078-094-096-097-220300-
SOUTH MIDDLE TENNESSEE

CITY           SKY/WX    TMP DP  RH WIND       PRES   REMARKS
FAYETTEVILLE   CLEAR     77  68  73 CALM      30.15R
TULLAHOMA      CLEAR     75  70  83 CALM      30.18R
WINCHESTER     CLEAR     75  72  88 CALM      30.17R
MCMINNVILLE    CLEAR     75  75 100 CALM      30.17R
COLUMBIA       CLEAR     77  75  94 CALM      30.11R
SHELBYVILLE    CLEAR     75  72  88 E3        30.14R
$$

TNZ017-018-042-046-047-220300-
NORTHEAST TENNESSEE

CITY           SKY/WX    TMP DP  RH WIND       PRES   REMARKS
TRI CITIES     PTCLDY    73  70  90 CALM      30.20R
ELIZABETHTON   CLEAR     73  68  83 CALM      30.22R
$$

TNZ012-013-036-069-073-074-220300-
CENTRAL EAST TENNESSEE

CITY           SKY/WX    TMP DP  RH WIND       PRES   REMARKS
KNOXVILLE      CLEAR     80  69  69 CALM      30.16R
OAK RIDGE      CLEAR     77  71  82 CALM      30.17R
DOWNTOWN KNOXV   N/A     73  72  94 CALM      30.15R
GATLINBURG     CLEAR     75  66  73 CALM      30.16R
MORRISTOWN     PTCLDY    79  70  73 CALM      30.17S
JACKSBORO      CLEAR     72  70  94 CALM      30.21R
$$

TNZ083-085-099-220300-
SOUTHEAST TENNESSEE

CITY           SKY/WX    TMP DP  RH WIND       PRES   REMARKS
CHATTANOOGA    CLEAR     79  72  79 CALM      30.15R
DAYTON         MOCLDY    77  75  94 CALM      30.14R
$$

SKY/WX REPORTED AS FAIR MEANS FEW OR NO CLOUDS BELOW
12 THOUSAND FEET.





USA.gov is the U.S. government's official web portal to all federal, state and local government web resources and services.